Soldotna, AK

1:24 PM AKST on December 07, 2019 (GMT -0900)
Soldotna

Weather History for PASX - October, 2019

Change the Weather History Date:

Tuesday, October 8, 2019

  Actual Average Record
Temperature  
Mean Temperature 43 °F -  
Max Temperature 52 °F 45 °F 56 °F (1993)
Min Temperature 35 °F 32 °F 12 °F (2014)
Degree Days  
Heating Degree Days 22    
Moisture  
Dew Point 35 °F    
Average Humidity 78    
Maximum Humidity 97    
Minimum Humidity 54    
Precipitation  
Precipitation 0.15 in - - ()
Sea Level Pressure  
Sea Level Pressure 30.26 in    
Wind  
Wind Speed 4 mph (East)    
Max Wind Speed 10 mph    
Max Gust Speed 17 mph    
Visibility 10 miles    
Events Rain    
Averages and records for this station are not official NWS values.
T = Trace of Precipitation, MM = Missing Value Source: NWS Daily Summary

Daily Weather History Graph

Daily Weather History Graph

Search for Another Location

Airport or City:

Astronomy

Oct. 08, 2019 Rise Set
Actual Time 8:27 AM AKDT 7:14 PM AKDT
Civil Twilight 7:44 AM AKDT 7:56 PM AKDT
Nautical Twilight 6:55 AM AKDT 8:45 PM AKDT
Astronomical Twilight 6:05 AM AKDT 9:36 PM AKDT
Moon 6:52 PM AKDT (10/8) 1:40 AM AKDT (10/8)
Length of Visible Light 12h 12m
Length of Day
10h 47m
Waxing Gibbous, 79% of the Moon is Illuminated
Oct 8
Waxing Gibbous
Oct 13
Full
Oct 21
Last Quarter
Oct 27
New
Nov 4
First Quarter

Hourly Weather History & Observations

Time (AKDT) Temp. Windchill Dew Point Humidity Pressure Visibility Wind Dir Wind Speed Gust Speed Precip Events Conditions
12:56 AM 36.0 °F 32.1 °F 28.0 °F 73% 30.35 in 10.0 mi East 4.6 mph - N/A   Scattered Clouds
1:56 AM 37.0 °F 34.5 °F 28.9 °F 73% 30.35 in 10.0 mi ENE 3.5 mph - N/A   Overcast
2:56 AM 35.1 °F - 28.0 °F 76% 30.34 in 10.0 mi Calm Calm - N/A   Clear
3:56 AM 36.0 °F 33.3 °F 28.9 °F 76% 30.32 in 10.0 mi East 3.5 mph - N/A   Overcast
4:56 AM 35.1 °F 32.2 °F 28.0 °F 76% 30.32 in 10.0 mi East 3.5 mph - N/A   Partly Cloudy
5:56 AM 36.0 °F 33.3 °F 28.0 °F 73% 30.30 in 10.0 mi East 3.5 mph - N/A   Clear
6:56 AM 36.0 °F 33.3 °F 28.0 °F 73% 30.30 in 10.0 mi East 3.5 mph - N/A   Partly Cloudy
7:56 AM 36.0 °F 31.1 °F 28.0 °F 73% 30.29 in 10.0 mi East 5.8 mph - N/A   Clear
8:56 AM 39.0 °F 32.3 °F 27.0 °F 62% 30.27 in 10.0 mi ESE 10.4 mph - N/A   Clear
9:56 AM 39.9 °F - 28.0 °F 63% 30.29 in 10.0 mi Calm Calm - N/A   Clear
10:56 AM 43.0 °F 41.3 °F 28.9 °F 58% 30.28 in 10.0 mi East 3.5 mph - N/A   Clear
11:56 AM 46.0 °F 44.8 °F 30.9 °F 56% 30.28 in 10.0 mi East 3.5 mph - N/A   Mostly Cloudy
1:56 PM 51.1 °F - 36.0 °F 56% 30.27 in 10.0 mi SSW 5.8 mph 17.3 mph N/A   Mostly Cloudy
2:56 PM 51.1 °F - 35.1 °F 54% 30.26 in 10.0 mi SW 6.9 mph - N/A   Scattered Clouds
3:56 PM 48.0 °F - 42.1 °F 80% 30.25 in 10.0 mi Calm Calm - 0.00 in Rain Light Rain
4:56 PM 46.9 °F - 43.0 °F 86% 30.24 in 10.0 mi Calm Calm - 0.00 in Rain Light Rain
5:56 PM 46.0 °F - 43.0 °F 89% 30.23 in 10.0 mi Calm Calm - 0.01 in Rain Light Rain
6:56 PM 46.0 °F 44.8 °F 44.1 °F 93% 30.23 in 10.0 mi WSW 3.5 mph - 0.01 in Rain Light Rain
7:56 PM 45.0 °F - 44.1 °F 97% 30.22 in 8.0 mi Calm Calm - 0.01 in Rain Light Rain
8:12 PM 44.6 °F 42.2 °F 42.8 °F 93% 30.18 in 7.0 mi East 4.6 mph - 0.01 in Rain Rain
8:56 PM 44.1 °F 42.5 °F 43.0 °F 96% 30.21 in 7.0 mi East 3.5 mph - 0.05 in Rain Rain
9:56 PM 43.0 °F 41.3 °F 42.1 °F 97% 30.19 in 9.0 mi East 3.5 mph - 0.04 in Rain Light Rain
10:56 PM 43.0 °F 40.3 °F 42.1 °F 97% 30.17 in 10.0 mi East 4.6 mph - 0.02 in Rain Light Rain
11:56 PM 43.0 °F 41.3 °F 41.0 °F 93% 30.17 in 10.0 mi ESE 3.5 mph - 0.01 in Rain Light Rain